sat.trackr.live / text

‹ back to catalog

CORIOLIS

NORAD 27640 · 2003-001A

PAYLOAD ACTIVE UNKNOWN

§ Identity

Operator
Country
US
Launch date
2003-01-06
Launch site
AFWTR
Launch vehicle
Mass (kg)
RCS (m²)
5.08

Purposes: science

External: N2YO · Heavens-Above · Gunter

§ Orbital elements

Epoch: 2026-09-09T23:10:55.396416Z

Period
101.41 min
Inclination
98.7167°
Eccentricity
0.0013486
Mean motion
14.19965287 rev/d
Perigee alt
815.8 km
Apogee alt
835.2 km
Semi-major
7,203.6 km
B*
6.1996e-5
RAAN
258.5707°
Arg perigee
333.2619°
Mean anomaly
26.7860°
Rev number
22,625

§ Raw data

CORIOLIS1 27640U 03001A   26252.96591894  .00000088  00000+0  61996-4 0  99912 27640  98.7167 258.5707 0013486 333.2619  26.7860 14.19965287226250

JSON: /api/v1/satellites/27640 · /tle

For live sub-satellite position, see the globe view (requires WebGL).

§ Visibility from observer

Set your observer location to see the next 7 days of passes ≥ 10°. The values pass through the URL so the page stays shareable.

No JS? Fill the form by hand. The geolocation button needs JavaScript.

§ Radio — SatNOGS DB

ModeDescriptionDownlinkUplink
FM Mode S 1 2.213 GHz
FM Mode S 2 2.223 GHz
QPSK Mode X 8.075 GHz
BPSK WindSat 2.222 GHz

4 transmitters · refreshed weekly from db.satnogs.org